Simultaneous Nadir Overpasses (SNOs) Predictions

Prediction of SNOs between METOP-C and LANDSAT-8 Satellite Orbit:

Table of predicted SNOs for the next 14.0 days since TLE Epoch: 8/12/2023
Index Date (METOP-C) Time (METOP-C) Lat,Lon (METOP-C) SZA (METOP-C ) Date (LANDSAT-8) Time (LANDSAT-8) Lat,Lon (LANDSAT-8) SZA (LANDSAT-8 ) Distance(km) Time Diff (sec)
1 08/12/2023 15:01:45 -81.20, 175.76 111.62 08/12/2023 15:02:24 -81.20, 175.59 111.62 2.89 39
2 08/12/2023 15:52:24 81.22, -16.16 68.49 08/12/2023 15:51:49 81.22, -16.29 68.46 2.30 35
3 08/15/2023 10:36:13 -81.19,-118.05 110.77 08/15/2023 10:36:41 -81.20,-117.97 110.75 1.36 28
4 08/15/2023 11:26:52 81.22, 50.07 69.34 08/15/2023 11:26:06 81.22, 50.12 69.33 1.10 46
5 08/18/2023 06:10:41 -81.20, -51.53 109.85 08/18/2023 06:10:59 -81.19, -51.60 109.86 1.35 18
6 08/18/2023 07:01:20 81.22, 116.61 70.27 08/18/2023 07:00:24 81.22, 116.46 70.22 2.58 56
7 08/21/2023 01:45:09 -81.20, 14.93 108.91 08/21/2023 01:45:16 -81.21, 15.07 108.89 2.50 7
8 08/21/2023 02:35:48 81.23,-176.90 71.21 08/21/2023 02:34:41 81.23,-176.89 71.19 0.60 67
9 08/23/2023 20:28:57 81.19, -86.56 71.97 08/23/2023 20:30:06 81.19, -86.38 72.03 3.15 69



Historial Predications of SNOs between METOP-C and LANDSAT-8
